Location: Oregon Trail
(41.1872°N, 102.0741°W)
Time: 07:25:44
(UTC+00:00)

COSMOS 2428 - Pass Details

Date: 19 November 2019
Orbit: 844 x 858 km, 70.9° (Epoch: 15 December)

Event Time Altitude Azimuth Distance (km) Brightness Sun altitude
Rises 12:47:35 0° 340° (NNW) 3,425 5.5 -10.2°
Reaches altitude 10° 12:50:07 10° 346° (NNW) 2,488 4.8 -9.7°
Maximum altitude 12:55:41 51° 62° (ENE) 1,069 3.6 -8.7°
Drops below altitude 10° 13:01:13 10° 137° (SE) 2,482 6.3 -7.7°
Sets 13:03:44 0° 143° (SE) 3,416 6.9 -7.3°
